Time,TemperatureF,DewpointF,PressureIn,WindDirection,WindDirectionDegrees,WindSpeedMPH,WindSpeedGustMPH,Humidity,HourlyPrecipIn,Conditions,Clouds,dailyrainin,SoftwareType,DateUTC
2013-02-22 00:00:00,21.7,15.9,30.25,NNE,23,2.0,-999.0,78,0.00,,,0.00,Wunderground v.1.15,2013-02-22 05:00:00,
2013-02-22 00:05:00,21.7,15.9,30.25,NNE,23,2.0,-999.0,78,0.00,,,0.00,Wunderground v.1.15,2013-02-22 05:05:00,
2013-02-22 00:10:00,21.7,15.9,30.25,NE,45,1.0,-999.0,78,0.00,,,0.00,Wunderground v.1.15,2013-02-22 05:10:00,
2013-02-22 00:15:00,21.7,15.9,30.25,East,90,1.0,-999.0,78,0.00,,,0.00,Wunderground v.1.15,2013-02-22 05:15:00,
2013-02-22 00:20:00,21.7,15.9,30.26,SE,135,1.0,-999.0,78,0.00,,,0.00,Wunderground v.1.15,2013-02-22 05:20:00,
2013-02-22 00:25:00,21.7,15.9,30.26,SE,135,1.0,-999.0,78,0.00,,,0.00,Wunderground v.1.15,2013-02-22 05:25:00,
2013-02-22 00:30:00,21.8,16.0,30.26,NE,45,1.0,-999.0,78,0.00,,,0.00,Wunderground v.1.15,2013-02-22 05:30:00,
2013-02-22 00:35:00,21.8,16.0,30.25,East,90,2.0,-999.0,78,0.00,,,0.00,Wunderground v.1.15,2013-02-22 05:35:00,
2013-02-22 00:40:00,21.8,16.0,30.24,NE,45,2.0,-999.0,78,0.00,,,0.00,Wunderground v.1.15,2013-02-22 05:40:00,
2013-02-22 00:45:00,21.8,16.0,30.24,NE,45,1.0,-999.0,78,0.00,,,0.00,Wunderground v.1.15,2013-02-22 05:45:00,
2013-02-22 00:50:00,21.8,16.0,30.24,NE,45,2.0,-999.0,78,0.00,,,0.00,Wunderground v.1.15,2013-02-22 05:50:00,
2013-02-22 00:55:00,21.8,16.0,30.25,NE,45,1.0,-999.0,78,0.00,,,0.00,Wunderground v.1.15,2013-02-22 05:55:00,
2013-02-22 01:00:00,21.8,16.0,30.24,ESE,113,2.0,-999.0,78,0.00,,,0.00,Wunderground v.1.15,2013-02-22 06:00:00,
2013-02-22 01:05:00,21.8,16.0,30.24,NNE,23,3.0,-999.0,78,0.00,,,0.00,Wunderground v.1.15,2013-02-22 06:05:00,
2013-02-22 01:10:00,21.8,16.0,30.24,NE,45,1.0,-999.0,78,0.00,,,0.00,Wunderground v.1.15,2013-02-22 06:10:00,
2013-02-22 01:15:00,21.8,16.0,30.23,NE,45,1.0,-999.0,78,0.00,,,0.00,Wunderground v.1.15,2013-02-22 06:15:00,
2013-02-22 01:20:00,21.8,16.0,30.22,East,90,1.0,-999.0,78,0.00,,,0.00,Wunderground v.1.15,2013-02-22 06:20:00,
2013-02-22 01:25:00,21.8,16.3,30.22,NE,45,2.0,-999.0,79,0.00,,,0.00,Wunderground v.1.15,2013-02-22 06:25:00,
2013-02-22 01:30:00,21.8,16.3,30.23,East,90,2.0,-999.0,79,0.00,,,0.00,Wunderground v.1.15,2013-02-22 06:30:00,
2013-02-22 01:35:00,21.8,16.3,30.22,NE,45,3.0,-999.0,79,0.00,,,0.00,Wunderground v.1.15,2013-02-22 06:35:00,
2013-02-22 01:40:00,21.8,16.3,30.22,NNE,23,2.0,-999.0,79,0.00,,,0.00,Wunderground v.1.15,2013-02-22 06:40:00,
2013-02-22 01:45:00,21.8,16.3,30.22,NE,45,1.0,-999.0,79,0.00,,,0.00,Wunderground v.1.15,2013-02-22 06:45:00,
2013-02-22 01:50:00,21.8,16.3,30.21,NE,45,2.0,-999.0,79,0.00,,,0.00,Wunderground v.1.15,2013-02-22 06:50:00,
2013-02-22 01:55:00,21.7,16.2,30.20,NNE,23,2.0,-999.0,79,0.00,,,0.00,Wunderground v.1.15,2013-02-22 06:55:00,
2013-02-22 02:00:00,21.7,16.2,30.20,NE,45,3.0,-999.0,79,0.00,,,0.00,Wunderground v.1.15,2013-02-22 07:00:00,
2013-02-22 02:05:00,21.8,16.3,30.19,NNE,23,2.0,-999.0,79,0.00,,,0.00,Wunderground v.1.15,2013-02-22 07:05:00,
2013-02-22 02:10:00,21.8,16.3,30.19,North,0,1.0,-999.0,79,0.00,,,0.00,Wunderground v.1.15,2013-02-22 07:10:00,
2013-02-22 02:15:00,21.8,16.3,30.19,NNE,23,1.0,-999.0,79,0.00,,,0.00,Wunderground v.1.15,2013-02-22 07:15:00,
2013-02-22 02:20:00,21.9,16.4,30.19,ESE,113,2.0,-999.0,79,0.00,,,0.00,Wunderground v.1.15,2013-02-22 07:20:00,
2013-02-22 02:25:00,21.9,16.4,30.18,East,90,1.0,-999.0,79,0.00,,,0.00,Wunderground v.1.15,2013-02-22 07:25:00,
2013-02-22 02:30:00,21.9,16.4,30.17,ESE,113,1.0,-999.0,79,0.00,,,0.00,Wunderground v.1.15,2013-02-22 07:30:00,
2013-02-22 02:35:00,21.9,16.4,30.16,East,90,2.0,-999.0,79,0.00,,,0.00,Wunderground v.1.15,2013-02-22 07:35:00,
2013-02-22 02:40:00,22.0,16.5,30.16,NNE,23,3.0,-999.0,79,0.00,,,0.00,Wunderground v.1.15,2013-02-22 07:40:00,
2013-02-22 02:45:00,22.0,16.5,30.15,NNE,23,3.0,-999.0,79,0.00,,,0.00,Wunderground v.1.15,2013-02-22 07:45:00,
2013-02-22 02:50:00,22.0,16.5,30.16,NNW,338,1.0,-999.0,79,0.00,,,0.00,Wunderground v.1.15,2013-02-22 07:50:00,
2013-02-22 02:55:00,22.1,16.6,30.15,NE,45,3.0,-999.0,79,0.00,,,0.00,Wunderground v.1.15,2013-02-22 07:55:00,
2013-02-22 03:00:00,22.1,16.6,30.14,NE,45,2.0,-999.0,79,0.00,,,0.00,Wunderground v.1.15,2013-02-22 08:00:00,
2013-02-22 03:05:00,22.2,16.7,30.14,NE,45,3.0,-999.0,79,0.00,,,0.00,Wunderground v.1.15,2013-02-22 08:05:00,
2013-02-22 03:10:00,22.3,16.8,30.14,NE,45,4.0,-999.0,79,0.00,,,0.00,Wunderground v.1.15,2013-02-22 08:10:00,
2013-02-22 03:15:00,22.4,16.9,30.14,ENE,68,2.0,-999.0,79,0.00,,,0.00,Wunderground v.1.15,2013-02-22 08:15:00,
2013-02-22 03:20:00,22.5,17.0,30.14,NNE,23,2.0,-999.0,79,0.00,,,0.00,Wunderground v.1.15,2013-02-22 08:20:00,
2013-02-22 03:25:00,22.5,17.0,30.14,NNE,23,2.0,-999.0,79,0.00,,,0.00,Wunderground v.1.15,2013-02-22 08:25:00,
2013-02-22 03:30:00,22.6,17.1,30.14,NNE,23,2.0,-999.0,79,0.00,,,0.00,Wunderground v.1.15,2013-02-22 08:30:00,
2013-02-22 03:35:00,22.7,17.2,30.14,NE,45,2.0,-999.0,79,0.00,,,0.00,Wunderground v.1.15,2013-02-22 08:35:00,
2013-02-22 03:40:00,22.8,17.3,30.14,NE,45,2.0,-999.0,79,0.00,,,0.00,Wunderground v.1.15,2013-02-22 08:40:00,
2013-02-22 03:45:00,22.9,17.4,30.14,NE,45,2.0,-999.0,79,0.00,,,0.00,Wunderground v.1.15,2013-02-22 08:45:00,
2013-02-22 03:50:00,22.9,17.4,30.14,NE,45,1.0,-999.0,79,0.00,,,0.00,Wunderground v.1.15,2013-02-22 08:50:00,
2013-02-22 03:55:00,23.0,17.2,30.13,ESE,113,1.0,-999.0,78,0.00,,,0.00,Wunderground v.1.15,2013-02-22 08:55:00,
2013-02-22 04:00:00,23.1,17.3,30.13,NE,45,1.0,-999.0,78,0.00,,,0.00,Wunderground v.1.15,2013-02-22 09:00:00,
2013-02-22 04:05:00,23.2,17.4,30.13,SE,135,1.0,-999.0,78,0.00,,,0.00,Wunderground v.1.15,2013-02-22 09:05:00,
2013-02-22 04:10:00,23.2,17.4,30.14,East,90,1.0,-999.0,78,0.00,,,0.00,Wunderground v.1.15,2013-02-22 09:10:00,
2013-02-22 04:15:00,23.3,17.5,30.13,ESE,113,1.0,-999.0,78,0.00,,,0.00,Wunderground v.1.15,2013-02-22 09:15:00,
2013-02-22 04:20:00,23.4,17.6,30.13,ESE,113,1.0,-999.0,78,0.00,,,0.00,Wunderground v.1.15,2013-02-22 09:20:00,
2013-02-22 04:25:00,23.5,17.6,30.13,NE,45,1.0,-999.0,78,0.00,,,0.00,Wunderground v.1.15,2013-02-22 09:25:00,
2013-02-22 04:30:00,23.6,17.7,30.12,NE,45,1.0,-999.0,78,0.00,,,0.00,Wunderground v.1.15,2013-02-22 09:30:00,
2013-02-22 04:35:00,23.7,17.5,30.11,East,90,2.0,-999.0,77,0.00,,,0.00,Wunderground v.1.15,2013-02-22 09:35:00,
2013-02-22 04:40:00,23.8,17.6,30.10,ENE,68,1.0,-999.0,77,0.00,,,0.00,Wunderground v.1.15,2013-02-22 09:40:00,
2013-02-22 04:45:00,23.9,17.7,30.10,NNE,23,1.0,-999.0,77,0.00,,,0.00,Wunderground v.1.15,2013-02-22 09:45:00,
2013-02-22 04:50:00,24.0,17.8,30.10,East,90,2.0,-999.0,77,0.00,,,0.00,Wunderground v.1.15,2013-02-22 09:50:00,
2013-02-22 04:55:00,24.1,17.9,30.09,ESE,113,2.0,-999.0,77,0.00,,,0.00,Wunderground v.1.15,2013-02-22 09:55:00,
2013-02-22 05:00:00,24.2,18.0,30.08,ESE,113,3.0,-999.0,77,0.00,,,0.00,Wunderground v.1.15,2013-02-22 10:00:00,
2013-02-22 05:05:00,24.3,17.8,30.08,East,90,3.0,-999.0,76,0.00,,,0.00,Wunderground v.1.15,2013-02-22 10:05:00,
2013-02-22 05:10:00,24.5,18.0,30.08,NNE,23,2.0,-999.0,76,0.00,,,0.00,Wunderground v.1.15,2013-02-22 10:10:00,
2013-02-22 05:15:00,24.6,18.1,30.07,NNE,23,3.0,-999.0,76,0.00,,,0.00,Wunderground v.1.15,2013-02-22 10:15:00,
2013-02-22 05:20:00,24.7,18.2,30.08,East,90,2.0,-999.0,76,0.00,,,0.00,Wunderground v.1.15,2013-02-22 10:20:00,
2013-02-22 05:25:00,24.8,18.3,30.07,NE,45,1.0,-999.0,76,0.00,,,0.00,Wunderground v.1.15,2013-02-22 10:25:00,
2013-02-22 05:30:00,25.0,18.2,30.07,ESE,113,2.0,-999.0,75,0.00,,,0.00,Wunderground v.1.15,2013-02-22 10:30:00,
2013-02-22 05:35:00,25.1,18.6,30.07,SE,135,3.0,-999.0,76,0.00,,,0.00,Wunderground v.1.15,2013-02-22 10:35:00,
2013-02-22 05:40:00,25.3,18.5,30.07,SE,135,2.0,-999.0,75,0.00,,,0.00,Wunderground v.1.15,2013-02-22 10:40:00,
2013-02-22 05:45:00,25.4,18.9,30.06,SE,135,2.0,-999.0,76,0.00,,,0.00,Wunderground v.1.15,2013-02-22 10:45:00,
2013-02-22 05:50:00,25.4,18.9,30.06,SE,135,2.0,-999.0,76,0.00,,,0.00,Wunderground v.1.15,2013-02-22 10:50:00,
2013-02-22 05:55:00,25.5,19.0,30.06,NNE,23,1.0,-999.0,76,0.00,,,0.00,Wunderground v.1.15,2013-02-22 10:55:00,
2013-02-22 06:00:00,25.5,19.3,30.05,ESE,113,3.0,-999.0,77,0.00,,,0.00,Wunderground v.1.15,2013-02-22 11:00:00,
2013-02-22 06:05:00,25.6,19.4,30.05,SE,135,1.0,-999.0,77,0.00,,,0.00,Wunderground v.1.15,2013-02-22 11:05:00,
2013-02-22 06:10:00,25.7,19.5,30.04,NNE,23,2.0,-999.0,77,0.00,,,0.00,Wunderground v.1.15,2013-02-22 11:10:00,
2013-02-22 06:15:00,25.8,19.6,30.04,East,90,3.0,-999.0,77,0.00,,,0.00,Wunderground v.1.15,2013-02-22 11:15:00,
2013-02-22 06:20:00,25.9,19.7,30.04,ESE,113,3.0,-999.0,77,0.00,,,0.00,Wunderground v.1.15,2013-02-22 11:20:00,
2013-02-22 06:25:00,26.0,19.8,30.04,ESE,113,3.0,-999.0,77,0.00,,,0.00,Wunderground v.1.15,2013-02-22 11:25:00,
2013-02-22 06:30:00,26.2,20.0,30.03,ESE,113,3.0,-999.0,77,0.00,,,0.00,Wunderground v.1.15,2013-02-22 11:30:00,
2013-02-22 06:35:00,26.3,20.1,30.04,East,90,1.0,-999.0,77,0.00,,,0.00,Wunderground v.1.15,2013-02-22 11:35:00,
2013-02-22 06:40:00,26.4,20.2,30.04,ESE,113,2.0,-999.0,77,0.00,,,0.00,Wunderground v.1.15,2013-02-22 11:40:00,
2013-02-22 06:45:00,26.5,20.3,30.03,SE,135,2.0,-999.0,77,0.00,,,0.00,Wunderground v.1.15,2013-02-22 11:45:00,
2013-02-22 06:50:00,26.5,20.3,30.03,ENE,68,2.0,-999.0,77,0.00,,,0.00,Wunderground v.1.15,2013-02-22 11:50:00,
2013-02-22 06:55:00,26.6,20.4,30.03,East,90,2.0,-999.0,77,0.00,,,0.00,Wunderground v.1.15,2013-02-22 11:55:00,
2013-02-22 07:00:00,26.7,20.5,30.03,East,90,2.0,-999.0,77,0.00,,,0.00,Wunderground v.1.15,2013-02-22 12:00:00,
2013-02-22 07:05:00,26.8,20.6,30.03,NNE,23,2.0,-999.0,77,0.00,,,0.00,Wunderground v.1.15,2013-02-22 12:05:00,
2013-02-22 07:10:00,26.9,20.7,30.03,ESE,113,1.0,-999.0,77,0.00,,,0.00,Wunderground v.1.15,2013-02-22 12:10:00,
2013-02-22 07:15:00,26.9,21.0,30.03,East,90,2.0,-999.0,78,0.00,,,0.00,Wunderground v.1.15,2013-02-22 12:15:00,
2013-02-22 07:20:00,27.0,21.1,30.03,ESE,113,2.0,-999.0,78,0.00,,,0.00,Wunderground v.1.15,2013-02-22 12:20:00,
2013-02-22 07:25:00,27.0,21.1,30.03,ESE,113,1.0,-999.0,78,0.00,,,0.00,Wunderground v.1.15,2013-02-22 12:25:00,
2013-02-22 07:30:00,27.1,21.2,30.02,SE,135,2.0,-999.0,78,0.00,,,0.00,Wunderground v.1.15,2013-02-22 12:30:00,
2013-02-22 07:35:00,27.1,21.2,30.02,ENE,68,2.0,-999.0,78,0.00,,,0.00,Wunderground v.1.15,2013-02-22 12:35:00,
2013-02-22 07:40:00,27.2,21.2,30.01,ENE,68,1.0,-999.0,78,0.00,,,0.00,Wunderground v.1.15,2013-02-22 12:40:00,
2013-02-22 07:45:00,27.3,21.3,30.01,East,90,4.0,-999.0,78,0.00,,,0.00,Wunderground v.1.15,2013-02-22 12:45:00,
2013-02-22 07:50:00,27.4,21.4,30.02,NNW,338,1.0,-999.0,78,0.00,,,0.00,Wunderground v.1.15,2013-02-22 12:50:00,
2013-02-22 08:00:00,27.6,21.9,30.01,NNE,23,1.0,-999.0,79,0.00,,,0.00,Wunderground v.1.15,2013-02-22 13:00:00,
2013-02-22 08:05:00,27.7,22.0,30.01,SSE,158,1.0,-999.0,79,0.00,,,0.00,Wunderground v.1.15,2013-02-22 13:05:00,
2013-02-22 08:10:00,27.7,22.3,30.00,ENE,68,2.0,-999.0,80,0.00,,,0.00,Wunderground v.1.15,2013-02-22 13:10:00,
2013-02-22 08:15:00,27.7,22.3,30.00,NNE,23,1.0,-999.0,80,0.00,,,0.00,Wunderground v.1.15,2013-02-22 13:15:00,
2013-02-22 08:20:00,27.8,22.4,30.00,East,90,2.0,-999.0,80,0.00,,,0.00,Wunderground v.1.15,2013-02-22 13:20:00,
2013-02-22 08:25:00,27.8,22.4,30.00,NNE,23,1.0,-999.0,80,0.00,,,0.00,Wunderground v.1.15,2013-02-22 13:25:00,
2013-02-22 08:30:00,27.9,22.5,30.00,ESE,113,2.0,-999.0,80,0.00,,,0.00,Wunderground v.1.15,2013-02-22 13:30:00,
2013-02-22 08:35:00,28.0,22.6,30.00,ESE,113,2.0,-999.0,80,0.00,,,0.00,Wunderground v.1.15,2013-02-22 13:35:00,
2013-02-22 08:40:00,28.1,22.7,30.00,SE,135,1.0,-999.0,80,0.00,,,0.00,Wunderground v.1.15,2013-02-22 13:40:00,
2013-02-22 08:45:00,28.2,22.8,30.00,SSE,158,1.0,-999.0,80,0.00,,,0.00,Wunderground v.1.15,2013-02-22 13:45:00,
2013-02-22 08:50:00,28.3,22.9,30.00,ESE,113,1.0,-999.0,80,0.00,,,0.00,Wunderground v.1.15,2013-02-22 13:50:00,
2013-02-22 08:55:00,28.4,23.0,30.00,East,90,1.0,-999.0,80,0.00,,,0.00,Wunderground v.1.15,2013-02-22 13:55:00,
2013-02-22 09:10:00,28.6,23.5,29.99,NE,45,1.0,-999.0,81,0.00,,,0.00,Wunderground v.1.15,2013-02-22 14:10:00,
2013-02-22 09:15:00,28.6,23.5,29.99,SE,135,1.0,-999.0,81,0.00,,,0.00,Wunderground v.1.15,2013-02-22 14:15:00,
2013-02-22 09:30:00,29.0,24.2,29.99,South,180,2.0,-999.0,82,0.00,,,0.00,Wunderground v.1.15,2013-02-22 14:30:00,
2013-02-22 09:35:00,29.1,24.0,29.99,East,90,2.0,-999.0,81,0.00,,,0.00,Wunderground v.1.15,2013-02-22 14:35:00,
2013-02-22 09:50:00,29.6,25.4,29.99,ESE,113,2.0,-999.0,84,0.00,,,0.00,Wunderground v.1.15,2013-02-22 14:50:00,
2013-02-22 09:55:00,29.8,25.8,29.99,SSW,203,2.0,-999.0,85,0.00,,,0.00,Wunderground v.1.15,2013-02-22 14:55:00,
2013-02-22 10:00:00,29.9,25.9,29.98,SE,135,2.0,-999.0,85,0.00,,,0.00,Wunderground v.1.15,2013-02-22 15:00:00,
2013-02-22 10:10:00,29.9,26.2,29.98,SE,135,1.0,-999.0,86,0.00,,,0.00,Wunderground v.1.15,2013-02-22 15:10:00,
2013-02-22 10:15:00,29.9,26.5,29.98,SE,135,1.0,-999.0,87,0.00,,,0.00,Wunderground v.1.15,2013-02-22 15:15:00,
2013-02-22 10:20:00,30.0,26.9,29.98,NW,315,0.0,-999.0,88,0.00,,,0.00,Wunderground v.1.15,2013-02-22 15:20:00,
2013-02-22 10:30:00,30.0,27.2,29.98,SW,225,0.0,-999.0,89,0.00,,,0.00,Wunderground v.1.15,2013-02-22 15:30:00,
2013-02-22 10:35:00,30.0,27.2,29.98,NNE,23,0.0,-999.0,89,0.00,,,0.00,Wunderground v.1.15,2013-02-22 15:35:00,
2013-02-22 10:40:00,30.0,27.4,29.98,SE,135,1.0,-999.0,90,0.00,,,0.00,Wunderground v.1.15,2013-02-22 15:40:00,
2013-02-22 10:45:00,30.1,27.5,29.98,SE,135,0.0,-999.0,90,0.00,,,0.00,Wunderground v.1.15,2013-02-22 15:45:00,
2013-02-22 10:50:00,30.2,27.6,29.98,NE,45,1.0,-999.0,90,0.00,,,0.00,Wunderground v.1.15,2013-02-22 15:50:00,
2013-02-22 10:55:00,30.2,27.9,29.98,East,90,1.0,-999.0,91,0.00,,,0.00,Wunderground v.1.15,2013-02-22 15:55:00,
2013-02-22 11:00:00,30.2,27.9,29.98,NNE,23,1.0,-999.0,91,0.00,,,0.00,Wunderground v.1.15,2013-02-22 16:00:00,
2013-02-22 11:05:00,30.3,28.0,29.98,East,90,0.0,-999.0,91,0.00,,,0.00,Wunderground v.1.15,2013-02-22 16:05:00,
2013-02-22 11:15:00,30.5,28.5,29.98,NE,46,0.0,0.0,92,0.00,,,0.00,Wunderground v.1.15,2013-02-22 16:15:00,
2013-02-22 11:25:00,30.7,28.7,29.98,ESE,115,0.0,0.0,92,0.00,,,0.00,Wunderground v.1.15,2013-02-22 16:25:00,
2013-02-22 11:30:00,30.9,28.9,29.98,WSW,243,0.0,0.0,92,0.00,,,0.00,Wunderground v.1.15,2013-02-22 16:30:00,
2013-02-22 11:35:00,31.0,28.9,29.98,WSW,238,0.0,0.0,92,0.00,,,0.00,Wunderground v.1.15,2013-02-22 16:35:00,
2013-02-22 11:40:00,31.1,29.0,29.98,SSE,151,0.0,0.0,92,0.00,,,0.00,Wunderground v.1.15,2013-02-22 16:40:00,
2013-02-22 11:50:00,31.4,29.6,29.98,SE,143,0.0,0.0,93,0.00,,,0.00,Wunderground v.1.15,2013-02-22 16:50:00,
2013-02-22 11:55:00,31.5,29.7,29.98,SE,142,0.0,0.0,93,0.00,,,0.00,Wunderground v.1.15,2013-02-22 16:55:00,
2013-02-22 12:00:00,31.6,29.8,29.97,SE,142,0.0,0.0,93,0.00,,,0.00,Wunderground v.1.15,2013-02-22 17:00:00,
2013-02-22 12:10:00,32.0,30.2,29.97,East,101,0.0,0.0,93,0.00,,,0.00,Wunderground v.1.15,2013-02-22 17:10:00,
2013-02-22 12:15:00,32.1,30.3,29.97,ESE,102,0.0,0.0,93,0.00,,,0.00,Wunderground v.1.15,2013-02-22 17:15:00,
2013-02-22 12:20:00,32.1,30.3,29.97,ESE,113,0.0,-999.0,93,0.00,,,0.01,Wunderground v.1.15,2013-02-22 17:20:00,
2013-02-22 12:25:00,32.2,30.4,29.97,ESE,113,0.0,-999.0,93,0.00,,,0.01,Wunderground v.1.15,2013-02-22 17:25:00,
2013-02-22 12:30:00,32.3,30.8,29.97,East,90,0.0,-999.0,94,0.00,,,0.01,Wunderground v.1.15,2013-02-22 17:30:00,
2013-02-22 12:35:00,32.5,31.0,29.96,N/A,-737280,0.0,-999.0,94,0.00,,,0.01,Wunderground v.1.15,2013-02-22 17:35:00,
2013-02-22 12:40:00,32.7,31.2,29.96,ESE,113,0.0,-999.0,94,0.00,,,0.01,Wunderground v.1.15,2013-02-22 17:40:00,
2013-02-22 12:45:00,32.9,31.4,29.96,ESE,113,0.0,-999.0,94,0.00,,,0.01,Wunderground v.1.15,2013-02-22 17:45:00,
2013-02-22 12:50:00,33.2,31.7,29.95,NW,315,0.0,-999.0,94,0.00,,,0.01,Wunderground v.1.15,2013-02-22 17:50:00,
2013-02-22 12:55:00,33.4,31.9,29.95,SSE,158,1.0,-999.0,94,0.00,,,0.01,Wunderground v.1.15,2013-02-22 17:55:00,
2013-02-22 13:00:00,33.7,32.2,29.95,SSE,158,0.0,-999.0,94,0.00,,,0.01,Wunderground v.1.15,2013-02-22 18:00:00,
2013-02-22 13:05:00,34.1,32.8,29.95,SW,225,0.0,-999.0,95,0.00,,,0.01,Wunderground v.1.15,2013-02-22 18:05:00,
2013-02-22 13:10:00,34.7,33.4,29.94,SSE,158,0.0,-999.0,95,0.00,,,0.01,Wunderground v.1.15,2013-02-22 18:10:00,
2013-02-22 13:15:00,35.2,33.9,29.94,SSE,158,1.0,-999.0,95,0.00,,,0.01,Wunderground v.1.15,2013-02-22 18:15:00,
2013-02-22 13:20:00,35.6,34.0,29.93,SSW,203,2.0,-999.0,94,0.00,,,0.01,Wunderground v.1.15,2013-02-22 18:20:00,
2013-02-22 13:25:00,36.0,34.4,29.93,SSW,203,1.0,-999.0,94,0.00,,,0.01,Wunderground v.1.15,2013-02-22 18:25:00,
2013-02-22 13:30:00,36.2,34.6,29.93,SSW,203,2.0,-999.0,94,0.00,,,0.01,Wunderground v.1.15,2013-02-22 18:30:00,
2013-02-22 13:35:00,36.4,34.6,29.93,SSW,203,2.0,-999.0,93,0.00,,,0.01,Wunderground v.1.15,2013-02-22 18:35:00,
2013-02-22 13:40:00,36.5,34.7,29.93,SSW,203,2.0,-999.0,93,0.00,,,0.01,Wunderground v.1.15,2013-02-22 18:40:00,
2013-02-22 13:45:00,36.6,34.8,29.93,SSW,203,3.0,-999.0,93,0.00,,,0.01,Wunderground v.1.15,2013-02-22 18:45:00,
2013-02-22 13:50:00,36.7,34.9,29.93,SSW,203,2.0,-999.0,93,0.00,,,0.01,Wunderground v.1.15,2013-02-22 18:50:00,
2013-02-22 13:55:00,36.9,35.1,29.93,South,180,3.0,-999.0,93,0.00,,,0.01,Wunderground v.1.15,2013-02-22 18:55:00,
2013-02-22 14:00:00,37.1,35.0,29.92,SSW,203,2.0,-999.0,92,0.00,,,0.01,Wunderground v.1.15,2013-02-22 19:00:00,
2013-02-22 14:05:00,37.2,35.1,29.93,SSW,203,2.0,-999.0,92,0.01,,,0.01,Wunderground v.1.15,2013-02-22 19:05:00,
2013-02-22 14:10:00,37.3,35.2,29.93,South,180,2.0,-999.0,92,0.01,,,0.01,Wunderground v.1.15,2013-02-22 19:10:00,
2013-02-22 14:15:00,37.3,35.2,29.93,SSE,158,2.0,-999.0,92,0.01,,,0.01,Wunderground v.1.15,2013-02-22 19:15:00,
2013-02-22 14:20:00,37.5,35.4,29.93,SW,225,2.0,-999.0,92,0.01,,,0.01,Wunderground v.1.15,2013-02-22 19:20:00,
2013-02-22 14:25:00,37.4,35.3,29.93,SW,225,0.0,-999.0,92,0.01,,,0.01,Wunderground v.1.15,2013-02-22 19:25:00,
2013-02-22 14:30:00,37.5,35.4,29.93,SW,225,0.0,-999.0,92,0.01,,,0.01,Wunderground v.1.15,2013-02-22 19:30:00,
2013-02-22 14:35:00,37.6,35.5,29.93,SW,225,0.0,-999.0,92,0.01,,,0.01,Wunderground v.1.15,2013-02-22 19:35:00,
2013-02-22 14:40:00,37.8,35.7,29.93,SSW,203,0.0,-999.0,92,0.01,,,0.01,Wunderground v.1.15,2013-02-22 19:40:00,
2013-02-22 14:45:00,37.9,35.8,29.93,SSW,203,2.0,-999.0,92,0.01,,,0.01,Wunderground v.1.15,2013-02-22 19:45:00,
2013-02-22 14:50:00,38.0,35.9,29.93,South,180,2.0,-999.0,92,0.01,,,0.01,Wunderground v.1.15,2013-02-22 19:50:00,
2013-02-22 14:55:00,38.0,35.6,29.94,SSW,203,2.0,-999.0,91,0.01,,,0.01,Wunderground v.1.15,2013-02-22 19:55:00,
2013-02-22 15:00:00,38.0,35.9,29.93,SSW,203,1.0,-999.0,92,0.01,,,0.01,Wunderground v.1.15,2013-02-22 20:00:00,
2013-02-22 15:05:00,38.0,35.9,29.93,South,180,0.0,-999.0,92,0.00,,,0.01,Wunderground v.1.15,2013-02-22 20:05:00,
2013-02-22 15:10:00,38.2,36.1,29.93,SSW,203,0.0,-999.0,92,0.00,,,0.01,Wunderground v.1.15,2013-02-22 20:10:00,
2013-02-22 15:15:00,38.3,36.2,29.93,N/A,-737280,0.0,-999.0,92,0.00,,,0.01,Wunderground v.1.15,2013-02-22 20:15:00,
2013-02-22 15:20:00,38.4,36.3,29.93,N/A,-737280,0.0,-999.0,92,0.00,,,0.01,Wunderground v.1.15,2013-02-22 20:20:00,
2013-02-22 15:25:00,38.4,36.3,29.93,N/A,-737280,0.0,-999.0,92,0.00,,,0.01,Wunderground v.1.15,2013-02-22 20:25:00,
2013-02-22 15:30:00,38.5,36.4,29.94,N/A,-737280,0.0,-999.0,92,0.00,,,0.01,Wunderground v.1.15,2013-02-22 20:30:00,
2013-02-22 15:35:00,38.6,36.5,29.94,N/A,-737280,0.0,-999.0,92,0.00,,,0.01,Wunderground v.1.15,2013-02-22 20:35:00,
2013-02-22 15:40:00,38.7,36.6,29.94,N/A,-737280,0.0,-999.0,92,0.00,,,0.01,Wunderground v.1.15,2013-02-22 20:40:00,
2013-02-22 15:45:00,38.7,36.6,29.94,N/A,-737280,0.0,-999.0,92,0.00,,,0.01,Wunderground v.1.15,2013-02-22 20:45:00,
2013-02-22 15:50:00,38.7,36.6,29.94,N/A,-737280,0.0,-999.0,92,0.00,,,0.01,Wunderground v.1.15,2013-02-22 20:50:00,
2013-02-22 15:55:00,38.7,36.6,29.94,N/A,-737280,0.0,-999.0,92,0.00,,,0.01,Wunderground v.1.15,2013-02-22 20:55:00,
2013-02-22 16:00:00,38.8,36.7,29.95,N/A,-737280,0.0,-999.0,92,0.00,,,0.01,Wunderground v.1.15,2013-02-22 21:00:00,
2013-02-22 16:05:00,38.8,36.4,29.95,N/A,-737280,0.0,-999.0,91,0.00,,,0.01,Wunderground v.1.15,2013-02-22 21:05:00,
2013-02-22 16:10:00,38.6,36.2,29.95,SE,135,0.0,-999.0,91,0.00,,,0.01,Wunderground v.1.15,2013-02-22 21:10:00,
2013-02-22 16:15:00,38.5,36.4,29.95,N/A,-737280,0.0,-999.0,92,0.00,,,0.01,Wunderground v.1.15,2013-02-22 21:15:00,
2013-02-22 16:20:00,38.4,36.3,29.95,SE,135,0.0,-999.0,92,0.00,,,0.01,Wunderground v.1.15,2013-02-22 21:20:00,
2013-02-22 16:25:00,38.5,36.4,29.95,SW,225,0.0,-999.0,92,0.00,,,0.01,Wunderground v.1.15,2013-02-22 21:25:00,
2013-02-22 16:30:00,38.8,36.9,29.96,WSW,248,2.0,-999.0,93,0.00,,,0.01,Wunderground v.1.15,2013-02-22 21:30:00,
2013-02-22 16:35:00,39.4,37.8,29.96,SW,225,4.0,-999.0,94,0.00,,,0.01,Wunderground v.1.15,2013-02-22 21:35:00,
2013-02-22 16:40:00,40.1,38.2,29.95,SW,225,4.0,-999.0,93,0.00,,,0.01,Wunderground v.1.15,2013-02-22 21:40:00,
2013-02-22 16:45:00,40.5,38.4,29.96,SW,225,5.0,-999.0,92,0.00,,,0.01,Wunderground v.1.15,2013-02-22 21:45:00,
2013-02-22 16:50:00,40.8,38.7,29.96,WSW,248,5.0,-999.0,92,0.00,,,0.01,Wunderground v.1.15,2013-02-22 21:50:00,
2013-02-22 16:55:00,40.9,38.5,29.96,SW,225,6.0,-999.0,91,0.00,,,0.01,Wunderground v.1.15,2013-02-22 21:55:00,
2013-02-22 17:00:00,41.0,38.6,29.97,SSW,203,6.0,-999.0,91,0.00,,,0.01,Wunderground v.1.15,2013-02-22 22:00:00,
2013-02-22 17:05:00,40.9,38.2,29.97,SSW,203,6.0,-999.0,90,0.00,,,0.01,Wunderground v.1.15,2013-02-22 22:05:00,
2013-02-22 17:10:00,40.8,37.8,29.97,SW,225,5.0,-999.0,89,0.00,,,0.01,Wunderground v.1.15,2013-02-22 22:10:00,
2013-02-22 17:15:00,40.7,37.4,29.97,SW,225,8.0,-999.0,88,0.00,,,0.01,Wunderground v.1.15,2013-02-22 22:15:00,
2013-02-22 17:20:00,40.7,37.4,29.97,SSW,203,7.0,-999.0,88,0.00,,,0.01,Wunderground v.1.15,2013-02-22 22:20:00,
2013-02-22 17:25:00,40.6,37.3,29.97,SSW,203,6.0,-999.0,88,0.00,,,0.01,Wunderground v.1.15,2013-02-22 22:25:00,
2013-02-22 17:30:00,40.5,37.2,29.97,SSW,203,7.0,-999.0,88,0.00,,,0.01,Wunderground v.1.15,2013-02-22 22:30:00,
2013-02-22 17:35:00,40.4,37.1,29.97,SW,225,5.0,-999.0,88,0.00,,,0.01,Wunderground v.1.15,2013-02-22 22:35:00,
2013-02-22 17:40:00,40.3,36.7,29.97,SW,225,5.0,-999.0,87,0.00,,,0.01,Wunderground v.1.15,2013-02-22 22:40:00,
2013-02-22 17:45:00,40.2,36.6,29.97,SW,225,5.0,-999.0,87,0.00,,,0.01,Wunderground v.1.15,2013-02-22 22:45:00,
2013-02-22 17:50:00,40.1,36.5,29.97,SW,225,4.0,-999.0,87,0.00,,,0.01,Wunderground v.1.15,2013-02-22 22:50:00,
2013-02-22 17:55:00,40.1,36.2,29.97,SSW,203,2.0,-999.0,86,0.00,,,0.01,Wunderground v.1.15,2013-02-22 22:55:00,
2013-02-22 18:00:00,40.0,36.2,29.96,SSW,203,2.0,-999.0,86,0.00,,,0.01,Wunderground v.1.15,2013-02-22 23:00:00,
2013-02-22 18:05:00,39.9,36.1,29.97,SSW,203,2.0,-999.0,86,0.00,,,0.01,Wunderground v.1.15,2013-02-22 23:05:00,
2013-02-22 18:10:00,39.8,36.0,29.97,SSW,203,3.0,-999.0,86,0.00,,,0.01,Wunderground v.1.15,2013-02-22 23:10:00,
2013-02-22 18:15:00,39.6,35.8,29.97,SSW,203,1.0,-999.0,86,0.00,,,0.01,Wunderground v.1.15,2013-02-22 23:15:00,
2013-02-22 18:20:00,39.3,35.8,29.97,SSE,158,1.0,-999.0,87,0.00,,,0.01,Wunderground v.1.15,2013-02-22 23:20:00,
2013-02-22 18:25:00,39.2,35.7,29.97,SSE,158,1.0,-999.0,87,0.00,,,0.01,Wunderground v.1.15,2013-02-22 23:25:00,
2013-02-22 18:30:00,39.1,35.6,29.97,SW,225,0.0,-999.0,87,0.00,,,0.01,Wunderground v.1.15,2013-02-22 23:30:00,
2013-02-22 18:35:00,38.8,35.3,29.97,N/A,-737280,0.0,-999.0,87,0.00,,,0.01,Wunderground v.1.15,2013-02-22 23:35:00,
2013-02-22 18:40:00,38.6,35.4,29.97,N/A,-737280,0.0,-999.0,88,0.00,,,0.01,Wunderground v.1.15,2013-02-22 23:40:00,
2013-02-22 18:45:00,38.3,35.1,29.98,N/A,-737280,0.0,-999.0,88,0.00,,,0.01,Wunderground v.1.15,2013-02-22 23:45:00,
2013-02-22 18:50:00,37.9,34.9,29.97,N/A,-737280,0.0,-999.0,89,0.00,,,0.01,Wunderground v.1.15,2013-02-22 23:50:00,
2013-02-22 18:55:00,37.7,34.8,29.97,N/A,-737280,0.0,-999.0,89,0.00,,,0.01,Wunderground v.1.15,2013-02-22 23:55:00,
2013-02-22 19:00:00,37.3,34.6,29.97,N/A,-737280,0.0,-999.0,90,0.00,,,0.01,Wunderground v.1.15,2013-02-23 00:00:00,
2013-02-22 19:05:00,37.0,34.3,29.97,N/A,-737280,0.0,-999.0,90,0.00,,,0.01,Wunderground v.1.15,2013-02-23 00:05:00,
2013-02-22 19:10:00,36.8,34.1,29.98,N/A,-737280,0.0,-999.0,90,0.00,,,0.01,Wunderground v.1.15,2013-02-23 00:10:00,
2013-02-22 19:15:00,36.8,34.4,29.97,N/A,-737280,0.0,-999.0,91,0.00,,,0.01,Wunderground v.1.15,2013-02-23 00:15:00,
2013-02-22 19:20:00,36.7,34.3,29.97,N/A,-737280,0.0,-999.0,91,0.00,,,0.01,Wunderground v.1.15,2013-02-23 00:20:00,
2013-02-22 19:25:00,36.5,34.1,29.98,N/A,-737280,0.0,-999.0,91,0.00,,,0.01,Wunderground v.1.15,2013-02-23 00:25:00,
2013-02-22 19:30:00,36.3,33.9,29.98,N/A,-737280,0.0,-999.0,91,0.00,,,0.01,Wunderground v.1.15,2013-02-23 00:30:00,
2013-02-22 19:35:00,36.3,34.2,29.98,N/A,-737280,0.0,-999.0,92,0.00,,,0.01,Wunderground v.1.15,2013-02-23 00:35:00,
2013-02-22 19:40:00,36.2,34.1,29.97,N/A,-737280,0.0,-999.0,92,0.00,,,0.01,Wunderground v.1.15,2013-02-23 00:40:00,
2013-02-22 19:45:00,36.1,34.0,29.98,N/A,-737280,0.0,-999.0,92,0.00,,,0.01,Wunderground v.1.15,2013-02-23 00:45:00,
2013-02-22 19:50:00,36.0,33.9,29.98,N/A,-737280,0.0,-999.0,92,0.00,,,0.01,Wunderground v.1.15,2013-02-23 00:50:00,
2013-02-22 19:55:00,36.0,33.9,29.98,N/A,-737280,0.0,-999.0,92,0.00,,,0.01,Wunderground v.1.15,2013-02-23 00:55:00,
2013-02-22 20:00:00,35.9,33.8,29.98,N/A,-737280,0.0,-999.0,92,0.00,,,0.01,Wunderground v.1.15,2013-02-23 01:00:00,
2013-02-22 20:05:00,35.9,34.1,29.97,N/A,-737280,0.0,-999.0,93,0.00,,,0.01,Wunderground v.1.15,2013-02-23 01:05:00,
2013-02-22 20:10:00,35.9,34.1,29.97,N/A,-737280,0.0,-999.0,93,0.00,,,0.01,Wunderground v.1.15,2013-02-23 01:10:00,
2013-02-22 20:15:00,35.9,34.1,29.97,N/A,-737280,0.0,-999.0,93,0.00,,,0.01,Wunderground v.1.15,2013-02-23 01:15:00,
2013-02-22 20:20:00,35.9,34.1,29.98,N/A,-737280,0.0,-999.0,93,0.00,,,0.01,Wunderground v.1.15,2013-02-23 01:20:00,
2013-02-22 20:25:00,35.8,34.0,29.98,N/A,-737280,0.0,-999.0,93,0.00,,,0.01,Wunderground v.1.15,2013-02-23 01:25:00,
2013-02-22 20:30:00,35.9,34.1,29.98,N/A,-737280,0.0,-999.0,93,0.00,,,0.01,Wunderground v.1.15,2013-02-23 01:30:00,
2013-02-22 20:35:00,35.9,34.1,29.98,N/A,-737280,0.0,-999.0,93,0.00,,,0.01,Wunderground v.1.15,2013-02-23 01:35:00,
2013-02-22 20:40:00,35.9,34.1,29.98,N/A,-737280,0.0,-999.0,93,0.00,,,0.01,Wunderground v.1.15,2013-02-23 01:40:00,
2013-02-22 20:45:00,35.9,34.1,29.97,N/A,-737280,0.0,-999.0,93,0.00,,,0.01,Wunderground v.1.15,2013-02-23 01:45:00,
2013-02-22 20:50:00,35.8,34.0,29.98,N/A,-737280,0.0,-999.0,93,0.00,,,0.01,Wunderground v.1.15,2013-02-23 01:50:00,
2013-02-22 20:55:00,35.7,33.9,29.98,N/A,-737280,0.0,-999.0,93,0.00,,,0.01,Wunderground v.1.15,2013-02-23 01:55:00,
2013-02-22 21:00:00,35.6,33.8,29.98,N/A,-737280,0.0,-999.0,93,0.00,,,0.01,Wunderground v.1.15,2013-02-23 02:00:00,
2013-02-22 21:05:00,35.6,33.8,29.97,N/A,-737280,0.0,-999.0,93,0.00,,,0.01,Wunderground v.1.15,2013-02-23 02:05:00,
2013-02-22 21:10:00,35.6,34.0,29.97,N/A,-737280,0.0,-999.0,94,0.00,,,0.01,Wunderground v.1.15,2013-02-23 02:10:00,
2013-02-22 21:15:00,35.5,33.9,29.97,N/A,-737280,0.0,-999.0,94,0.00,,,0.01,Wunderground v.1.15,2013-02-23 02:15:00,
2013-02-22 21:20:00,35.4,33.6,29.97,N/A,-737280,0.0,-999.0,93,0.00,,,0.01,Wunderground v.1.15,2013-02-23 02:20:00,
2013-02-22 21:25:00,35.3,33.7,29.98,N/A,-737280,0.0,-999.0,94,0.00,,,0.01,Wunderground v.1.15,2013-02-23 02:25:00,
2013-02-22 21:30:00,35.3,33.7,29.98,N/A,-737280,0.0,-999.0,94,0.00,,,0.01,Wunderground v.1.15,2013-02-23 02:30:00,
2013-02-22 21:35:00,35.3,33.7,29.98,N/A,-737280,0.0,-999.0,94,0.00,,,0.01,Wunderground v.1.15,2013-02-23 02:35:00,
2013-02-22 21:40:00,35.3,33.7,29.98,SE,135,0.0,-999.0,94,0.00,,,0.01,Wunderground v.1.15,2013-02-23 02:40:00,
2013-02-22 21:45:00,35.4,33.8,29.98,SSE,158,0.0,-999.0,94,0.00,,,0.01,Wunderground v.1.15,2013-02-23 02:45:00,
2013-02-22 21:50:00,35.5,33.9,29.98,SSE,158,0.0,-999.0,94,0.00,,,0.01,Wunderground v.1.15,2013-02-23 02:50:00,
2013-02-22 21:55:00,35.5,33.9,29.98,N/A,-737280,0.0,-999.0,94,0.00,,,0.01,Wunderground v.1.15,2013-02-23 02:55:00,
2013-02-22 22:00:00,35.4,33.8,29.98,SSE,158,0.0,-999.0,94,0.00,,,0.01,Wunderground v.1.15,2013-02-23 03:00:00,
2013-02-22 22:05:00,35.5,33.9,29.98,SSE,158,1.0,-999.0,94,0.00,,,0.01,Wunderground v.1.15,2013-02-23 03:05:00,
2013-02-22 22:10:00,35.6,34.0,29.98,SE,135,0.0,-999.0,94,0.00,,,0.01,Wunderground v.1.15,2013-02-23 03:10:00,
2013-02-22 22:15:00,35.5,33.9,29.98,South,180,1.0,-999.0,94,0.00,,,0.01,Wunderground v.1.15,2013-02-23 03:15:00,
2013-02-22 22:20:00,35.7,34.4,29.98,SW,225,1.0,-999.0,95,0.00,,,0.01,Wunderground v.1.15,2013-02-23 03:20:00,
2013-02-22 22:25:00,36.0,34.7,29.98,SW,225,1.0,-999.0,95,0.00,,,0.01,Wunderground v.1.15,2013-02-23 03:25:00,
2013-02-22 22:30:00,36.2,34.6,29.98,SSW,203,2.0,-999.0,94,0.00,,,0.01,Wunderground v.1.15,2013-02-23 03:30:00,
2013-02-22 22:35:00,36.7,34.9,29.98,SSW,203,4.0,-999.0,93,0.00,,,0.01,Wunderground v.1.15,2013-02-23 03:35:00,
2013-02-22 22:40:00,37.1,35.0,29.99,SSW,203,2.0,-999.0,92,0.00,,,0.01,Wunderground v.1.15,2013-02-23 03:40:00,
2013-02-22 22:45:00,37.3,34.9,29.98,SW,225,1.0,-999.0,91,0.00,,,0.01,Wunderground v.1.15,2013-02-23 03:45:00,
2013-02-22 22:50:00,37.5,34.8,29.99,SW,225,0.0,-999.0,90,0.00,,,0.01,Wunderground v.1.15,2013-02-23 03:50:00,
2013-02-22 22:55:00,37.5,34.6,29.99,West,270,0.0,-999.0,89,0.00,,,0.01,Wunderground v.1.15,2013-02-23 03:55:00,
2013-02-22 23:00:00,37.6,34.7,29.99,N/A,-737280,0.0,-999.0,89,0.00,,,0.01,Wunderground v.1.15,2013-02-23 04:00:00,
2013-02-22 23:05:00,37.5,34.6,29.99,N/A,-737280,0.0,-999.0,89,0.00,,,0.01,Wunderground v.1.15,2013-02-23 04:05:00,
2013-02-22 23:10:00,37.3,34.4,29.99,N/A,-737280,0.0,-999.0,89,0.00,,,0.01,Wunderground v.1.15,2013-02-23 04:10:00,
2013-02-22 23:15:00,37.2,34.0,29.98,N/A,-737280,0.0,-999.0,88,0.00,,,0.01,Wunderground v.1.15,2013-02-23 04:15:00,
2013-02-22 23:20:00,36.8,33.9,29.99,N/A,-737280,0.0,-999.0,89,0.00,,,0.01,Wunderground v.1.15,2013-02-23 04:20:00,
2013-02-22 23:25:00,36.5,33.6,29.98,N/A,-737280,0.0,-999.0,89,0.00,,,0.01,Wunderground v.1.15,2013-02-23 04:25:00,
2013-02-22 23:30:00,36.2,33.5,29.98,N/A,-737280,0.0,-999.0,90,0.00,,,0.01,Wunderground v.1.15,2013-02-23 04:30:00,
2013-02-22 23:35:00,36.1,33.5,29.98,N/A,-737280,0.0,-999.0,90,0.00,,,0.01,Wunderground v.1.15,2013-02-23 04:35:00,
2013-02-22 23:40:00,35.9,33.5,29.98,N/A,-737280,0.0,-999.0,91,0.00,,,0.01,Wunderground v.1.15,2013-02-23 04:40:00,
2013-02-22 23:45:00,35.8,33.4,29.98,N/A,-737280,0.0,-999.0,91,0.00,,,0.01,Wunderground v.1.15,2013-02-23 04:45:00,
2013-02-22 23:50:00,35.7,33.3,29.98,N/A,-737280,0.0,-999.0,91,0.00,,,0.01,Wunderground v.1.15,2013-02-23 04:50:00,
2013-02-22 23:55:00,35.6,33.2,29.98,N/A,-737280,0.0,-999.0,91,0.00,,,0.01,Wunderground v.1.15,2013-02-23 04:55:00,